GFSFLT1_sfc_dewp_102.txt.gz
Dewpoint
18 19 19 19 21 24 28 47 65 66 66 66 65 64 65 65 65 65 64 64 64 64 64 63 63 63 62 62 61 61 61 60
26 43 46 36 23 24 28 37 61 66 66 65 64 63 64 65 64 64 64 64 64 64 63 63 63 62 62 62 62 61 60 61
46 46 46 48 49 47 37 40 55 65 65 64 65 64 65 65 65 64 64 64 64 64 63 63 63 63 62 62 61 60 60 61
45 45 45 46 47 47 49 50 53 64 64 65 63 64 63 63 64 64 64 64 64 63 63 63 63 62 61 61 61 60 59 60
43 43 43 44 45 46 47 49 53 61 64 64 62 62 61 62 62 63 64 64 64 63 62 63 62 62 61 61 61 60 59 58
40 40 41 41 43 44 46 47 50 56 64 64 62 62 61 61 63 63 63 63 63 63 62 61 62 62 61 61 60 60 60 59
37 38 38 39 40 42 45 46 48 53 63 64 62 61 61 61 62 61 62 62 62 61 61 61 61 61 60 60 60 60 59 59
35 35 35 36 37 39 43 45 46 50 62 63 63 61 61 60 61 61 61 61 61 60 60 60 61 61 61 60 60 59 59 58
34 34 33 34 36 39 41 43 45 49 61 63 63 63 60 60 61 61 60 60 60 60 60 61 61 60 60 60 59 59 59 59
32 33 33 33 35 37 40 42 44 49 63 62 62 60 59 59 59 60 59 59 58 59 59 59 59 59 59 59 59 59 59 59
31 31 32 34 35 36 39 42 44 48 54 61 60 60 60 59 59 58 58 58 58 58 57 57 57 58 59 59 58 59 59 59
30 29 31 32 34 35 36 40 43 46 49 56 59 59 59 59 58 58 58 58 58 57 57 57 57 56 56 55 55 55 56 57
29 29 30 31 32 34 35 37 40 42 45 52 58 58 58 58 58 58 58 57 57 56 56 55 55 55 55 55 54 56 56 56
28 29 30 30 32 33 34 36 38 40 42 51 57 57 58 57 57 57 57 57 56 56 55 55 55 55 55 55 55 55 56 56
28 28 29 29 31 32 32 34 37 39 39 39 42 50 57 57 58 57 57 57 56 55 56 55 55 54 54 55 55 55 54 52
27 27 28 28 29 30 31 32 35 36 36 36 36 39 43 50 52 55 55 54 53 51 48 46 45 44 42 45 52 54 51 46
26 26 27 28 28 29 29 30 32 35 35 35 36 34 36 37 41 43 42 41 41 41 39 39 38 38 37 39 45 47 45 43
26 27 28 28 28 30 29 29 30 31 32 34 34 34 32 33 34 36 36 36 36 35 35 35 35 35 37 38 38 39 38 37
26 27 27 28 28 28 29 29 28 28 29 31 33 33 33 32 32 31 32 32 32 33 32 33 33 34 35 35 35 35 34 34

GFSFLT1_sfc_dewp_105.txt.gz
Dewpoint
41 48 49 49 50 48 38 38 46 64 67 67 67 65 66 65 64 65 65 65 65 66 66 66 65 64 64 64 63 63 63 63
47 47 48 48 50 51 52 51 44 51 62 65 64 63 64 64 64 66 65 65 64 65 66 65 64 64 63 63 63 62 61 62
45 45 46 46 47 49 49 51 52 50 56 62 63 63 64 64 65 65 65 65 65 65 65 64 64 63 63 63 62 61 61 61
42 42 43 44 44 46 46 48 50 53 55 62 65 64 64 64 64 64 64 66 65 65 65 64 63 63 63 63 63 62 59 61
39 40 40 41 42 43 44 46 49 51 55 59 62 60 60 62 63 63 64 64 64 65 64 64 64 63 64 63 63 62 61 59
37 37 38 39 40 40 42 43 46 50 52 56 61 61 61 63 63 64 65 64 64 64 64 64 64 64 63 63 63 62 61 60
36 36 37 37 38 39 40 41 43 46 50 54 60 62 62 61 63 63 64 63 63 64 64 64 64 63 63 64 62 62 61 61
35 34 35 36 36 36 38 39 41 44 48 53 57 62 61 62 62 63 63 62 63 62 63 64 64 63 63 63 62 61 61 60
32 32 32 34 35 36 36 38 40 44 47 51 59 62 63 63 63 63 62 61 61 63 63 63 63 63 62 63 63 62 61 60
31 32 32 33 34 35 37 37 39 43 47 50 62 63 62 62 63 64 63 62 62 62 63 62 62 61 62 62 61 61 62 60
30 31 31 33 34 35 36 37 39 42 45 49 59 63 62 61 62 62 62 62 62 61 61 61 61 61 61 61 60 61 59 59
29 29 30 31 33 34 34 36 37 40 43 47 52 60 61 60 60 61 61 61 60 60 60 60 60 60 60 60 60 59 59 59
28 28 29 29 30 32 33 34 36 39 41 45 55 59 59 59 59 59 59 59 60 59 59 58 59 58 59 58 57 57 57 57
27 27 28 28 29 30 31 33 35 37 39 41 45 48 56 59 59 58 58 58 58 58 58 57 57 56 56 56 56 56 57 57
26 27 28 28 28 29 30 31 33 36 37 38 38 40 42 48 58 58 58 58 57 57 57 56 56 55 55 55 55 56 56 55
26 27 28 27 27 28 28 30 31 33 36 36 36 36 37 38 42 47 57 57 56 56 53 49 48 48 45 53 55 56 51 47
25 26 26 26 27 27 28 29 30 31 33 34 36 36 34 34 35 37 39 40 41 41 40 39 39 39 37 39 46 49 46 44
25 26 27 27 27 28 28 29 29 29 30 31 33 34 35 33 32 33 34 34 35 35 35 35 35 36 36 38 39 41 39 39
26 27 26 28 28 28 28 28 28 27 27 28 30 31 33 34 33 31 31 32 32 32 33 33 34 34 35 35 35 35 34 34

GFSFLT1_sfc_dewp_108.txt.gz
Dewpoint
42 45 47 48 49 52 52 53 53 47 51 61 61 63 64 65 64 63 65 65 66 67 67 67 67 66 66 66 66 65 65 64
44 47 48 49 49 50 51 53 55 54 43 51 57 63 64 62 64 65 65 65 66 67 66 67 66 65 65 66 66 64 64 64
43 44 46 47 47 48 49 49 52 53 52 46 53 58 60 61 63 65 66 65 66 66 66 66 66 65 65 65 64 63 63 64
41 41 43 44 45 46 46 47 48 51 54 54 52 57 59 59 61 63 65 66 66 66 66 66 66 65 64 64 64 63 61 62
39 39 41 42 43 45 45 46 47 48 51 53 54 53 55 57 59 60 63 65 66 66 66 66 66 65 65 65 64 64 63 60
38 38 38 39 41 43 44 44 45 46 48 50 52 54 57 57 58 61 63 64 65 66 66 66 66 65 64 65 64 64 63 62
38 38 37 37 39 41 42 43 43 45 46 48 50 53 56 58 58 60 62 64 64 65 65 66 66 65 64 64 65 65 64 63
36 34 35 36 38 39 39 39 40 42 43 45 48 50 56 58 60 60 62 63 63 64 64 65 64 65 65 65 65 65 64 63
34 33 34 35 36 37 37 37 38 39 40 43 46 48 51 57 61 60 61 62 62 63 64 64 64 65 65 65 64 64 64 64
33 33 33 34 34 36 35 36 36 38 40 42 45 48 52 59 62 62 62 63 63 63 64 63 64 64 64 64 64 63 63 63
32 32 32 33 33 34 35 36 36 37 39 42 45 47 52 61 62 62 62 64 63 63 64 63 63 63 62 63 63 62 62 62
30 30 31 31 32 33 33 34 34 36 39 41 44 50 61 61 62 63 63 63 63 63 62 62 62 62 62 62 62 61 61 61
30 30 30 30 30 31 31 32 33 34 37 40 43 48 54 60 61 62 63 62 62 61 61 61 61 61 61 61 61 60 60 60
29 29 29 28 29 28 29 31 32 33 36 39 40 43 45 49 59 60 61 60 60 60 60 60 60 60 60 60 59 59 59 59
27 28 29 28 28 28 28 30 31 32 34 36 37 39 41 43 46 52 59 59 59 59 59 59 59 59 59 58 57 57 57 57
27 27 28 27 28 29 29 29 30 30 32 33 35 37 37 37 39 40 43 49 56 58 57 57 54 55 53 57 57 57 55 52
27 26 27 27 27 28 29 29 30 29 30 31 33 35 35 35 35 36 36 37 39 41 42 43 42 40 39 40 53 55 50 47
28 28 28 28 29 30 29 29 30 29 28 29 30 32 33 34 33 32 33 33 35 35 35 36 36 37 37 38 39 42 41 40
28 29 28 30 30 29 30 30 29 29 28 28 29 30 30 32 32 31 31 30 32 32 32 33 33 34 35 35 35 34 34 34

GFSFLT1_sfc_dewp_111.txt.gz
Dewpoint
35 41 44 46 47 50 50 52 54 56 53 52 56 58 61 64 64 64 67 65 66 67 66 67 67 67 67 64 66 66 64 62
40 44 46 48 49 49 50 51 53 53 52 49 45 55 58 61 62 66 67 66 66 67 66 67 67 66 66 66 67 66 65 64
40 42 44 46 46 48 48 48 50 51 51 52 52 51 53 56 61 63 65 67 68 67 67 66 67 66 65 65 65 65 65 65
39 40 42 44 44 45 45 46 47 49 51 50 52 53 53 56 57 58 62 66 68 67 66 67 67 65 64 65 65 64 62 64
38 39 40 41 42 45 45 45 46 46 48 49 51 51 52 49 56 56 60 64 66 67 67 66 67 66 65 65 65 64 63 61
39 39 38 38 41 42 44 44 44 45 46 48 48 50 51 53 55 59 61 62 65 65 66 66 67 66 66 66 64 65 64 62
38 37 37 37 39 41 43 43 42 43 44 46 46 47 49 51 54 56 60 60 64 64 65 65 66 66 65 66 66 65 64 63
37 36 35 37 38 39 40 40 40 41 42 43 43 44 47 49 52 56 58 61 64 65 64 65 65 65 65 66 65 64 65 63
34 34 35 35 36 37 38 38 38 39 40 40 40 41 44 46 50 53 57 60 62 65 64 65 65 65 65 66 65 64 64 64
34 34 34 35 35 37 38 37 37 37 38 39 39 41 43 45 48 53 56 61 62 65 65 64 64 64 64 65 65 65 64 64
33 33 34 34 35 35 37 37 36 36 37 37 38 40 43 45 47 50 57 61 62 64 65 64 64 64 64 64 64 64 65 64
32 32 32 33 33 34 34 34 34 35 35 35 37 40 43 47 53 55 60 62 62 63 64 63 63 64 63 63 63 63 62 62
31 31 32 31 31 31 31 32 33 33 34 35 37 40 42 46 50 59 60 61 62 62 63 62 62 62 62 62 62 62 61 61
30 30 30 30 30 30 30 30 31 32 33 34 35 38 39 41 44 49 51 60 60 60 62 62 62 62 61 62 62 62 61 61
29 29 30 30 30 30 29 29 30 30 31 32 33 35 37 38 41 43 45 48 58 60 61 61 61 61 60 61 61 61 60 60
28 28 29 29 29 29 30 30 30 30 30 31 31 34 35 36 37 37 38 41 42 44 52 53 57 58 57 60 60 60 58 56
27 28 30 30 30 29 30 31 31 31 30 30 31 32 33 34 34 34 34 35 35 37 37 38 41 44 43 48 55 57 55 51
28 29 30 30 30 31 31 32 32 31 30 31 30 31 31 31 33 32 32 32 32 33 35 35 34 37 39 43 42 42 41 41
29 29 30 31 32 31 32 32 32 32 31 31 31 31 30 30 29 29 30 30 29 29 30 33 33 33 34 35 35 35 34 34

GFSFLT1_sfc_dewp_114.txt.gz
Dewpoint
38 42 46 46 50 52 53 54 57 58 58 59 56 53 63 65 65 64 66 66 66 67 66 67 66 66 66 66 64 65 64 64
42 46 48 48 50 50 50 53 55 54 54 54 55 54 54 62 63 66 66 66 66 66 66 68 66 65 65 65 65 65 64 65
41 43 45 47 47 48 48 48 49 50 50 51 53 54 55 55 56 59 64 66 66 66 66 66 67 65 64 65 66 64 64 65
39 40 43 46 46 47 45 46 47 48 50 48 50 52 54 55 53 53 61 64 67 66 66 66 66 65 64 63 65 64 62 63
38 39 40 42 44 46 45 46 45 45 47 47 48 48 49 51 52 54 56 60 60 66 65 66 66 66 64 63 65 64 62 61
38 37 37 38 42 43 45 44 43 43 45 46 46 46 47 48 49 51 53 57 59 63 65 66 66 66 65 63 63 64 63 61
37 37 37 37 40 42 43 42 41 42 43 43 44 44 44 45 47 48 51 53 57 62 63 65 65 65 65 64 64 64 62 62
34 34 34 37 38 39 39 40 39 40 40 40 41 41 42 42 43 46 48 50 54 59 62 64 64 65 65 65 65 64 63 62
33 33 35 35 37 37 38 37 37 37 37 38 38 39 39 41 42 44 46 49 51 55 61 62 64 63 64 64 64 64 64 63
31 31 34 35 35 36 37 36 35 36 37 37 37 38 38 39 40 42 44 47 49 53 57 62 63 64 63 64 64 64 64 63
30 31 34 34 34 33 35 35 34 34 35 35 35 37 38 39 41 43 44 45 48 52 54 60 64 64 64 64 64 63 63 63
30 31 32 32 32 32 33 33 33 32 33 33 35 36 37 40 41 43 45 48 49 51 54 59 62 63 63 64 63 62 62 62
29 30 31 31 30 30 31 32 32 32 32 33 34 35 36 38 39 41 44 48 55 53 56 59 61 62 62 63 62 62 62 61
29 30 30 30 30 30 31 32 31 31 31 32 33 34 34 36 38 39 41 46 49 57 59 59 60 61 61 63 62 62 62 62
28 29 29 29 30 29 31 33 32 31 31 32 32 32 33 34 36 37 37 39 41 43 53 57 59 61 62 62 62 62 61 61
27 27 28 27 28 30 31 32 33 33 32 31 31 32 32 33 34 34 34 34 37 39 39 40 44 46 49 59 61 61 61 56
26 27 28 28 29 31 31 32 32 33 33 32 32 32 31 30 31 31 32 32 31 34 36 37 36 36 38 43 56 60 54 48
27 28 30 29 30 31 30 31 32 32 32 32 32 32 31 30 29 29 28 29 30 30 31 34 34 35 36 39 41 44 44 45
27 29 29 30 31 31 32 32 31 31 31 31 32 32 32 31 30 29 28 28 27 28 28 30 31 34 36 35 35 35 35 34

GFSFLT1_sfc_dewp_117.txt.gz
Dewpoint
45 46 47 48 48 47 48 50 51 51 52 53 54 55 54 58 64 66 67 67 66 68 66 66 66 66 66 66 65 64 63 63
45 45 45 45 45 45 46 47 48 48 48 48 49 51 52 54 57 59 60 67 65 65 67 66 66 65 64 65 64 64 62 63
43 43 43 44 44 45 45 45 45 46 46 46 48 49 52 52 55 56 58 59 63 66 66 66 66 65 64 64 63 61 63 64
40 41 41 42 43 43 43 44 43 45 45 45 46 47 48 49 49 51 52 54 57 62 65 65 66 66 65 64 64 63 62 62
37 37 38 40 40 42 42 42 42 42 42 43 43 44 44 45 46 47 48 49 52 55 59 64 65 65 65 64 65 64 63 61
36 36 37 38 38 40 40 40 40 40 40 40 41 41 42 43 44 44 45 47 49 50 55 58 63 64 64 64 63 64 63 62
34 35 35 36 37 38 38 38 38 38 38 38 38 38 38 39 40 41 43 45 47 49 52 56 60 63 64 64 63 63 64 63
33 34 34 35 35 36 35 36 35 35 35 36 36 36 37 37 38 40 40 42 44 47 50 52 56 61 63 64 63 63 63 63
31 33 33 33 33 33 34 33 33 34 34 34 34 34 36 36 37 38 39 41 42 44 47 49 52 54 61 63 63 63 63 63
32 32 32 32 31 33 33 32 32 32 32 32 33 34 34 35 37 38 39 40 41 43 45 47 50 52 58 61 61 61 64 64
31 32 32 31 31 31 32 32 31 31 31 32 32 34 35 35 36 37 39 40 42 43 44 45 48 52 56 61 59 61 61 63
30 31 31 30 30 30 31 32 32 31 31 32 33 34 35 36 36 38 39 41 42 44 46 48 48 50 53 61 60 59 59 61
29 29 30 29 29 29 30 31 31 31 30 32 33 34 34 34 35 36 38 39 40 43 47 50 50 50 53 60 61 60 60 61
28 28 28 28 28 29 30 30 31 30 31 32 32 33 33 33 34 35 36 36 38 41 42 47 52 52 54 59 60 61 61 60
27 27 27 28 27 29 29 29 31 30 32 32 32 33 32 32 32 33 34 34 35 36 40 40 44 47 54 59 59 58 59 61
27 27 27 27 28 29 29 29 30 32 31 32 32 33 33 31 30 30 31 32 33 33 35 37 38 38 42 49 56 58 59 57
26 26 26 27 29 29 28 29 30 32 31 31 32 33 32 32 30 30 29 29 31 32 31 33 34 35 37 41 51 58 52 47
25 25 27 28 29 29 29 30 31 30 30 31 31 32 32 32 32 30 29 29 29 29 30 31 31 33 34 35 36 37 37 40
25 26 27 29 29 30 31 30 30 29 28 29 29 30 30 30 31 30 29 29 28 29 28 29 29 31 33 33 32 33 32 33

GFSFLT1_sfc_dewp_123.txt.gz
Dewpoint
45 44 44 44 44 44 44 44 44 45 46 46 48 47 48 51 54 54 57 57 59 62 61 61 62 64 64 65 65 65 65 65
42 42 43 42 42 42 42 42 42 42 43 43 45 43 45 46 50 49 53 51 52 54 59 60 63 62 62 64 65 64 63 62
40 40 39 39 39 40 39 40 39 40 41 42 42 42 45 45 44 45 48 46 49 50 52 56 59 60 63 63 64 63 63 63
37 37 37 37 36 37 37 36 36 37 38 38 38 40 40 42 39 40 42 43 45 47 49 51 53 56 58 60 63 62 61 62
36 37 37 37 36 35 34 35 34 34 35 36 36 37 36 38 38 38 39 40 42 45 47 49 50 52 54 56 60 62 61 58
36 36 35 35 35 33 33 33 33 33 33 33 34 34 35 36 36 36 37 39 40 41 44 46 47 49 51 54 56 59 63 60
34 34 34 35 34 32 31 32 31 31 31 31 32 32 32 33 34 35 36 38 39 40 41 42 43 45 47 49 53 55 60 62
34 33 32 32 31 31 30 31 31 31 31 31 31 31 32 32 33 34 34 36 37 38 39 40 41 42 43 45 47 49 51 60
36 36 34 33 32 31 30 30 31 31 31 31 31 31 31 32 33 33 34 36 36 37 39 40 42 43 43 43 44 47 50 53
36 34 34 33 32 32 32 31 30 30 31 30 30 30 30 32 33 33 34 35 36 37 38 40 41 42 43 44 43 44 47 51
32 31 30 30 29 29 30 30 30 30 31 30 29 30 30 32 32 33 33 34 35 36 37 38 39 40 42 43 44 45 46 49
28 28 28 27 27 28 28 28 29 30 31 32 29 30 30 31 31 32 32 33 33 34 35 36 37 38 40 42 44 45 45 47
27 27 27 27 27 27 28 28 29 31 29 31 31 31 32 31 31 31 32 32 32 33 34 34 36 37 39 41 43 45 48 49
26 26 26 26 26 27 28 29 29 29 29 29 30 29 30 31 31 30 31 31 31 32 32 33 33 35 36 38 40 42 45 49
25 25 26 26 27 27 27 28 29 28 28 27 27 28 29 29 30 29 29 29 29 30 31 32 32 33 34 35 37 40 43 51
25 25 25 26 26 27 27 28 29 28 27 26 26 27 27 28 28 29 29 29 28 28 29 31 31 32 33 34 38 40 43 51
24 25 26 26 26 25 25 25 25 26 25 25 25 26 26 26 27 27 27 27 27 27 28 30 30 31 34 34 35 38 38 40
24 25 26 27 27 28 24 22 22 22 22 23 23 24 24 24 25 24 24 24 25 26 27 29 29 31 33 33 32 32 32 33
24 25 25 23 21 22 25 24 23 21 21 21 21 21 21 21 22 22 23 24 24 25 25 27 28 30 32 33 33 31 30 31

GFSFLT1_sfc_dewp_126.txt.gz
Dewpoint
40 40 40 39 39 39 39 38 38 40 42 44 46 45 47 51 49 51 50 51 51 53 59 61 61 61 62 64 64 65 65 65
38 37 36 36 36 36 35 36 36 37 38 38 43 42 45 47 44 47 46 46 49 49 51 54 57 60 60 60 60 60 62 64
36 36 35 34 33 34 35 34 34 34 35 36 38 39 43 44 40 42 43 43 46 45 48 50 53 54 56 61 59 58 59 62
34 33 33 33 33 32 33 33 32 33 33 33 34 37 37 39 36 38 38 40 42 45 47 48 49 51 53 55 57 60 58 61
34 34 33 33 33 33 32 32 31 31 32 32 32 33 33 35 35 36 37 39 41 43 44 45 46 48 50 52 55 57 59 58
33 33 33 33 32 32 31 32 32 31 31 32 31 31 32 33 34 34 36 38 39 40 42 43 43 45 46 47 49 51 55 56
34 34 33 32 32 31 30 30 31 32 32 32 31 31 31 31 33 33 35 35 37 38 40 40 41 41 42 44 46 47 49 53
38 37 36 35 34 32 30 30 31 31 31 31 31 30 31 31 31 32 33 34 35 36 38 38 39 40 41 43 43 44 45 47
37 35 34 32 31 30 31 30 30 31 31 30 30 30 31 31 31 31 32 34 34 35 37 39 39 41 42 43 44 44 45 46
35 33 31 30 29 29 29 29 29 29 30 31 31 30 30 30 30 31 32 33 33 34 35 36 38 39 40 41 42 44 44 45
31 29 29 28 28 29 29 29 29 30 31 30 31 31 31 31 30 30 31 31 32 33 34 35 36 37 38 39 40 43 44 45
27 27 27 27 27 27 27 29 29 30 30 28 30 31 30 32 31 30 31 31 31 32 33 34 35 35 37 38 40 41 43 44
26 26 26 26 26 27 27 28 29 29 29 29 29 30 30 29 30 30 30 30 30 31 32 32 33 33 34 36 37 38 40 43
26 25 26 26 27 27 27 28 28 29 29 27 27 27 28 27 29 29 29 29 29 29 30 31 31 32 33 34 35 35 37 40
25 25 25 26 26 27 26 26 28 28 27 27 26 27 27 28 28 28 28 27 27 28 29 31 31 32 32 33 34 36 36 38
24 24 24 25 25 24 24 23 24 25 25 25 25 27 27 27 26 27 27 26 27 28 28 29 30 31 32 33 33 35 37 40
24 24 25 25 25 25 26 24 22 23 22 22 23 24 25 24 25 25 25 25 26 27 27 28 29 30 32 33 32 32 32 33
24 24 24 24 24 26 26 25 24 22 21 22 21 22 21 21 22 22 22 24 25 25 25 26 26 29 31 31 31 30 30 31
23 21 22 22 22 24 27 26 24 22 21 21 21 20 20 20 20 20 20 22 23 23 23 24 24 28 31 30 30 28 28 29

GFSFLT1_sfc_dewp_132.txt.gz
Dewpoint
36 36 36 35 36 37 38 39 41 41 41 44 45 43 46 47 45 46 48 47 49 50 52 54 57 60 62 64 64 65 64 62
34 35 36 35 36 36 36 38 40 38 36 37 38 39 43 44 41 45 45 46 48 48 48 50 52 53 57 59 61 63 63 61
34 35 37 38 38 37 37 37 38 38 36 36 37 38 40 40 39 41 43 44 46 45 47 48 49 50 52 55 57 58 61 63
35 36 37 37 37 37 36 36 36 38 39 36 37 37 37 36 37 37 40 42 44 46 46 46 48 48 48 51 52 54 55 58
35 36 36 37 38 38 37 37 36 36 37 36 37 35 34 36 36 36 39 41 41 43 44 44 45 45 47 47 47 50 51 52
36 38 39 37 36 36 36 36 35 35 36 37 36 36 35 35 36 37 38 39 39 39 41 41 42 42 44 44 46 47 48 48
39 39 36 34 34 35 35 35 34 35 35 36 36 36 35 34 35 34 34 35 37 39 38 39 39 40 41 41 42 44 44 45
40 38 35 32 33 34 33 34 34 34 35 34 34 34 34 33 33 33 34 33 34 36 36 36 37 37 39 40 41 41 42 43
38 36 34 32 33 33 33 32 33 33 33 33 33 32 31 31 32 32 32 32 32 34 34 35 36 37 37 38 39 40 41 43
37 34 32 31 32 33 34 33 32 32 33 32 32 31 31 30 31 31 30 31 30 32 33 33 34 35 36 36 37 38 39 41
35 32 31 30 31 31 34 34 32 32 32 31 30 30 30 30 30 30 30 30 30 31 31 31 32 32 33 34 35 36 37 38
32 30 29 30 30 31 31 32 32 32 32 32 31 30 31 30 29 29 29 30 29 29 30 30 30 30 31 32 33 33 35 36
30 28 29 29 29 28 29 31 32 32 32 31 31 31 30 30 29 29 30 28 29 28 29 29 29 29 30 30 30 33 34 35
28 28 28 28 26 25 25 28 30 30 30 30 31 30 29 29 29 29 29 28 28 28 28 28 30 30 28 30 30 30 31 33
28 28 28 27 25 24 21 22 23 25 26 27 27 27 28 28 28 29 29 28 28 27 28 28 30 29 28 29 28 28 28 30
28 26 27 25 25 21 20 22 23 23 23 25 27 27 26 27 27 27 28 28 27 27 27 27 28 28 30 29 29 28 28 28
25 25 25 25 21 20 21 24 25 25 25 26 27 27 27 27 27 27 28 27 27 28 27 26 27 28 29 29 29 29 28 27
26 27 28 26 26 24 24 25 25 25 25 25 25 26 25 26 26 26 27 28 28 26 27 28 28 29 25 27 28 29 27 26
29 29 28 28 28 26 26 25 25 25 26 25 25 24 24 25 24 25 26 29 27 26 25 26 26 27 24 24 24 26 26 25

GFSFLT1_sfc_dewp_135.txt.gz
Dewpoint
38 39 39 38 38 39 40 41 42 42 41 43 44 43 47 47 45 46 48 47 49 50 50 53 54 55 57 60 62 63 65 64
37 38 39 39 40 39 39 41 42 40 37 37 38 39 42 41 41 44 45 46 48 48 47 49 50 51 53 55 56 59 60 63
36 39 40 40 40 40 40 40 40 40 38 39 39 39 39 39 39 41 42 44 45 45 47 47 48 48 50 51 53 53 56 58
37 38 39 39 40 40 39 39 39 40 41 39 39 39 39 38 38 37 40 42 43 45 44 46 46 46 46 49 50 51 50 52
37 38 39 40 40 41 39 37 36 37 39 38 39 37 36 37 37 38 39 41 41 42 44 43 43 44 45 45 45 48 49 48
37 40 39 37 37 38 38 37 36 37 38 39 37 38 36 36 37 38 38 38 39 40 41 41 41 40 42 43 44 44 45 45
39 40 38 35 35 37 37 36 35 37 37 37 38 37 36 35 36 35 35 36 36 38 38 38 38 38 39 39 41 41 41 42
40 38 36 34 35 36 35 35 35 36 36 36 36 35 35 34 34 33 33 33 34 35 35 35 35 36 37 38 38 40 40 40
40 38 36 33 34 35 35 34 34 35 35 35 35 34 32 32 32 32 31 31 31 33 33 33 34 34 36 36 37 38 38 41
39 36 35 33 33 35 36 35 34 35 35 35 34 33 33 32 32 31 31 31 30 31 31 32 32 33 33 35 35 36 36 38
38 35 34 33 33 35 36 35 35 35 35 35 33 33 32 32 31 31 30 31 30 29 30 30 30 31 32 32 33 33 35 36
37 34 33 32 33 33 34 34 34 35 35 35 34 33 32 32 31 30 30 30 30 29 29 29 29 30 30 30 30 31 32 33
35 34 33 32 31 30 32 33 34 34 33 33 33 33 31 31 30 30 31 30 29 29 29 29 29 30 29 29 30 29 29 29
33 32 32 31 29 28 29 28 29 30 31 30 29 29 29 29 29 30 30 29 28 28 28 28 28 29 28 28 29 28 28 29
32 31 31 28 28 26 23 23 23 23 24 25 27 27 27 27 27 28 28 27 26 26 27 27 28 27 27 27 28 27 26 27
31 31 30 28 27 23 22 23 23 23 24 26 28 28 27 27 27 28 28 27 26 25 25 25 26 25 27 27 28 27 26 25
30 29 28 25 22 21 22 24 25 26 26 27 28 27 27 28 28 28 28 27 27 27 26 26 25 23 24 25 27 27 26 25
28 28 28 26 24 23 24 25 25 26 26 26 27 27 27 27 27 27 28 28 27 26 27 27 27 26 22 24 24 27 26 25
29 31 29 28 26 25 26 26 27 27 27 26 26 25 26 26 26 27 29 31 28 27 25 25 25 24 21 22 23 26 25 24

GFSFLT1_sfc_dewp_138.txt.gz
Dewpoint
39 39 40 40 41 42 43 44 45 46 45 45 45 46 49 50 47 48 49 47 49 49 49 50 51 51 52 53 55 59 61 61
38 40 42 42 43 42 42 43 45 43 42 42 43 43 44 46 43 47 45 46 47 46 47 48 49 48 50 51 53 53 55 59
37 40 41 42 42 43 42 41 42 42 41 42 44 44 44 43 43 45 44 45 45 43 45 45 45 45 46 47 49 50 50 53
37 39 40 43 42 42 39 38 38 41 41 39 40 42 42 39 39 40 41 43 43 45 44 44 43 43 43 44 45 45 46 48
37 38 40 41 42 42 39 38 38 39 41 40 40 38 36 38 38 38 39 40 41 42 41 40 41 40 41 41 42 42 43 44
37 39 38 37 39 41 41 39 38 39 39 40 38 37 37 37 37 37 37 38 38 38 37 37 37 37 38 38 38 38 39 40
38 40 38 35 38 40 41 38 37 38 39 38 38 37 36 35 35 34 34 34 35 35 34 35 35 36 35 37 36 38 38 39
40 39 36 35 37 38 38 37 36 37 37 37 36 35 35 34 33 33 32 32 32 32 33 33 32 34 35 35 36 35 37 37
40 39 37 35 36 37 36 35 35 36 37 36 35 34 33 33 33 32 32 31 32 32 32 32 32 32 33 34 34 34 35 37
40 39 37 35 36 37 38 36 35 36 36 36 35 34 34 32 32 31 31 31 30 31 32 31 31 32 32 32 32 32 33 34
40 37 36 34 36 37 38 38 36 36 37 36 34 33 33 32 32 31 30 30 31 30 30 30 31 30 30 30 30 32 32 31
39 36 35 34 35 35 36 36 35 36 36 35 34 32 32 31 31 31 30 30 30 29 29 29 30 29 29 29 30 29 30 30
38 35 34 33 33 33 34 34 35 35 34 34 33 33 31 31 29 30 31 29 29 29 29 29 29 28 28 28 31 29 28 29
39 34 33 33 31 31 31 30 30 31 30 29 29 29 29 28 28 29 28 27 26 27 26 26 27 26 27 27 30 27 27 27
35 34 33 32 30 28 25 25 26 26 26 27 28 28 28 28 28 28 28 27 25 25 25 25 25 23 24 26 28 26 25 24
35 32 32 29 28 25 23 25 25 25 25 27 28 28 28 28 29 29 28 28 26 25 25 24 23 21 22 24 26 26 24 23
32 31 30 29 25 24 24 26 27 28 26 27 28 27 27 28 28 28 27 26 26 25 24 24 22 21 23 24 24 25 23 21
32 30 29 27 25 26 26 27 27 26 26 26 26 26 26 25 27 27 26 26 25 24 23 23 22 21 22 23 22 22 21 20
31 31 29 28 28 27 28 27 28 27 26 25 26 25 23 26 24 26 25 26 25 24 23 22 21 21 21 22 23 21 20 20

GFSFLT1_sfc_dewp_141.txt.gz
Dewpoint
39 39 40 40 40 41 42 42 42 42 42 42 43 43 44 44 45 44 46 46 46 47 46 47 46 46 46 47 49 51 53 57
40 41 41 41 41 40 41 41 40 40 40 41 41 42 42 41 43 42 43 44 43 44 45 44 43 44 44 45 45 46 49 50
40 40 40 40 40 40 37 37 39 39 39 39 40 42 42 39 40 39 41 40 42 40 40 40 40 41 41 41 42 43 46 46
39 39 40 40 39 37 36 37 38 39 39 39 38 39 38 38 37 38 37 38 38 37 37 37 37 38 38 39 39 39 40 43
39 39 40 39 38 37 36 37 37 37 39 38 37 36 35 37 36 35 35 36 35 35 35 35 35 36 35 35 36 37 37 38
38 39 38 38 37 37 36 37 37 37 37 37 36 35 35 35 34 33 33 34 33 33 33 33 33 33 33 35 33 35 36 37
39 36 35 35 36 36 36 36 36 37 36 35 35 33 33 32 32 32 32 32 32 32 32 33 33 33 33 34 34 34 34 35
37 35 34 35 35 35 35 36 36 36 35 34 33 33 32 31 31 31 31 31 31 31 31 31 32 32 33 33 33 33 34 34
38 36 34 34 35 34 34 35 35 35 35 34 33 33 33 32 31 30 31 30 30 30 30 31 31 31 31 31 32 32 32 33
39 35 34 35 35 35 35 35 35 35 35 34 33 33 32 31 31 31 31 30 29 30 30 30 29 29 29 30 31 31 31 31
37 34 35 35 36 36 36 36 35 36 34 33 33 32 31 31 31 30 30 30 29 30 29 29 28 28 28 28 31 29 28 29
42 35 34 35 36 35 35 35 35 35 34 33 32 31 31 30 30 30 30 29 28 28 27 28 25 26 26 27 28 26 26 26
40 36 35 35 34 34 34 34 33 33 33 32 31 31 30 29 28 29 29 27 28 27 25 25 23 24 26 26 27 24 24 24
41 39 36 35 34 33 32 32 32 29 30 28 28 28 28 27 28 28 27 25 25 25 23 23 22 23 24 25 28 24 22 23
39 37 38 36 33 27 26 26 28 28 29 28 28 28 28 28 28 28 27 24 24 25 23 22 22 22 23 23 23 21 20 21
38 38 37 35 28 25 25 28 27 27 28 27 27 27 28 28 28 27 27 25 24 24 23 21 22 21 22 22 22 20 19 19
37 37 33 27 24 25 27 28 28 28 26 24 24 26 26 25 25 25 25 25 23 22 22 21 21 20 23 22 21 21 20 19
38 33 29 26 26 27 28 28 27 26 25 25 23 22 22 18 24 24 20 19 20 21 18 19 19 21 22 23 23 19 18 17
30 27 27 28 28 28 28 27 26 25 23 23 25 21 17 21 16 13 14 15 13 13 17 17 17 20 21 21 21 14 13 15

GFSFLT1_sfc_dewp_144.txt.gz
Dewpoint
38 39 39 39 41 41 40 40 40 40 42 41 43 41 43 41 41 43 42 44 43 44 42 42 42 42 42 42 43 45 48 47
39 40 40 40 40 39 38 38 39 39 39 39 40 40 39 39 39 39 40 38 39 38 39 38 39 40 39 40 39 41 45 43
39 40 39 40 37 37 37 38 38 39 39 38 39 39 39 38 37 37 38 36 36 35 35 36 37 38 37 37 37 38 41 41
39 39 40 38 35 36 37 37 37 38 38 37 37 37 37 35 35 35 35 35 35 35 34 35 35 36 35 35 35 36 36 39
39 39 39 36 36 36 36 37 37 37 37 36 35 34 34 34 34 34 34 34 33 34 34 34 34 35 34 34 34 35 35 35
38 39 38 36 36 36 36 37 36 36 35 35 34 33 33 33 33 32 33 33 32 32 33 33 33 34 34 34 34 35 35 34
39 38 37 36 36 35 36 36 35 35 34 34 33 32 31 31 31 31 31 32 32 32 32 32 32 32 32 32 33 33 33 33
36 35 35 35 35 35 35 35 35 34 34 33 32 32 31 30 30 31 30 30 30 30 31 30 30 29 30 32 32 32 32 32
34 34 35 34 34 35 35 35 35 34 33 32 32 32 31 31 30 31 30 30 30 30 30 29 29 28 29 31 32 30 29 30
35 34 34 34 34 34 35 35 35 34 33 33 32 31 31 30 30 30 30 30 28 29 29 27 28 27 28 29 27 27 28 27
36 35 35 35 35 35 36 36 35 34 33 32 32 31 31 31 30 30 29 29 29 27 27 24 26 26 27 27 25 25 24 25
37 35 35 36 37 36 35 35 35 34 33 32 31 31 30 29 29 29 27 27 27 25 25 23 23 25 25 27 23 23 23 22
37 36 38 36 36 35 34 34 34 34 33 32 31 30 28 28 28 26 26 25 25 23 23 22 23 24 24 25 23 22 21 21
39 37 36 36 35 35 37 34 31 30 29 28 28 28 28 27 27 25 25 25 25 22 22 22 22 24 23 21 20 19 19 21
36 36 36 36 36 36 35 29 29 29 29 28 27 27 28 27 27 25 24 24 24 21 22 22 23 22 21 21 19 19 19 19
37 37 36 36 33 30 27 28 29 28 27 27 27 28 27 27 26 26 24 23 23 22 21 22 22 22 20 19 19 19 19 18
37 37 36 34 26 26 27 28 27 28 26 25 25 26 25 24 24 24 23 21 20 20 20 21 21 20 22 20 19 18 18 18
37 37 35 28 26 28 28 28 27 26 25 25 22 21 21 18 24 23 18 15 16 17 12 14 15 18 21 20 20 17 16 14
38 34 28 28 28 28 28 27 26 25 23 23 24 21 18 21 16 13 10 8 6 4 8 11 15 20 20 20 20 8 11 12